Weather in Ivashka

Russia / Kamchatka Krai     58°33′31″N   162°18′14″E
temp.,
°C
wind,
m/s
gust,
m/s
humid.,
%
clouds,
%
prec.,
mm/h
press.,
hPa
HPBL,
m
25 january, mon
mon2500:00−21n228315 0.0 101320
03:00−20n1182100 0.0 101121
06:00−18nne1179100 0.0 101027
09:00−15ene3381100 0.0 100977
12:00−12ne2391100 0.3 1007141
15:00−8nne51294100 2.1 1005778
18:00−7nne61495100 4.1 1004679
21:00−8nne81594100 2.1 1005641
26 january, tue
tue2600:00−9nne71494100 4.5 1006602
03:00−9nne71494100 1.7 1006529
06:00−8nne81594100 3.9 1007748
09:00−8nne81594100 1.8 1010653
12:00−8nne81392100 2.5 1011563
15:00−8nne71293100 0.5 1011549
18:00−9nne71394100 1.4 1012505
21:00−9nne101693100 1.5 1014679
27 january, wed
wed2700:00−8nne101790100 2.0 1014712
03:00−9nne91592100 0.7 1014553
06:00−9nne71493100 1.3 1014597
09:00−10nne5790100 0.2 1013160
12:00−13nne6894100 0.3 1012199
15:00−8n3593100 0.3 1010237
18:00−10ne4595100 0.7 1009129
21:00−7nw2295100 0.7 100796
28 january, thu
thu2800:00−15ene5697100 1.8 1005158
03:00−15n1295100 0.6 100491
06:00−15sw1192100 0.7 100372
09:00−16nnw1288100 0.3 1003104
12:00−17nw2395100 0.7 1002218
15:00−17nnw3394100 0.4 1001273
18:00−18nw229099 0.5 100156
21:00−19wnw228298 0.0 100125
29 january, fri
fri2900:00−19nw228399 0.0 100245
03:00−20wnw228588 0.0 100320
06:00−20wnw227989 0.0 100521
09:00−21wnw227487 0.0 100820
12:00−18w227592 0.0 101153
15:00−18w127790 0.0 101325
18:00−21wnw237464 0.0 101520
21:00−22nw237370 0.0 101720